| time (UTC) | temp F | wind direction | speed MPH | gust MPH | rain 1hr in | rain 24hr in | rain mn in | humidity % | barometer mb |
| 20260906161433 | 88 | 246 | 0.0 | 1.0 | 0.00 | 0.00 | 0.00 | 74 | 1010.0 |
| 20260906160431 | 88 | 242 | 0.0 | 1.0 | 0.00 | 0.00 | 0.00 | 74 | 1010.2 |
| 20260906155432 | 88 | 142 | 0.0 | 0.0 | 0.00 | 0.00 | 0.00 | 74 | 1010.3 |
| 20260906154433 | 88 | 269 | 0.0 | 1.0 | 0.00 | 0.00 | 0.00 | 74 | 1010.4 |
| 20260906153922 | 88 | 50 | 0.0 | 1.0 | 0.00 | 0.00 | 0.00 | 74 | 1010.6 |
| 20260906153404 | 88 | 135 | 0.0 | 0.0 | 0.00 | 0.00 | 0.00 | 73 | 1010.5 |
| 20260906151431 | 88 | 315 | 0.0 | 1.0 | 0.00 | 0.00 | 0.00 | 74 | 1010.5 |
| 20260906150433 | 88 | 175 | 1.0 | 1.0 | 0.00 | 0.00 | 0.00 | 74 | 1010.6 |
| 20260906145432 | 88 | 119 | 0.0 | 1.0 | 0.00 | 0.00 | 0.00 | 73 | 1010.6 |
| 20260906144925 | 88 | 129 | 0.0 | 1.0 | 0.00 | 0.00 | 0.00 | 74 | 1010.2 |
| 20260906143432 | 88 | 151 | 0.0 | 1.0 | 0.00 | 0.00 | 0.00 | 73 | 1010.1 |
| 20260906142927 | 89 | 321 | 0.0 | 2.0 | 0.00 | 0.00 | 0.00 | 73 | 1010.1 |
| 20260906141433 | 89 | 64 | 0.0 | 2.0 | 0.00 | 0.00 | 0.00 | 73 | 1009.8 |
| 20260906140919 | 89 | 212 | 0.0 | 1.0 | 0.00 | 0.00 | 0.00 | 72 | 1009.6 |
| 20260906135431 | 89 | 150 | 1.0 | 1.0 | 0.00 | 0.00 | 0.00 | 72 | 1009.6 |
| 20260906134432 | 89 | 13 | 0.0 | 3.0 | 0.00 | 0.00 | 0.00 | 71 | 1009.3 |
| 20260906133431 | 89 | 37 | 0.0 | 1.0 | 0.00 | 0.00 | 0.00 | 71 | 1009.3 |
| 20260906132432 | 89 | 352 | 0.0 | 2.0 | 0.00 | 0.00 | 0.00 | 69 | 1009.4 |
| 20260906131433 | 89 | 269 | 0.0 | 1.0 | 0.00 | 0.00 | 0.00 | 70 | 1009.4 |
| 20260906130431 | 89 | 129 | 0.0 | 3.0 | 0.00 | 0.00 | 0.00 | 69 | 1009.3 |
| 20260906125431 | 89 | 236 | 2.0 | 4.0 | 0.00 | 0.00 | 0.00 | 70 | 1009.0 |
| 20260906124433 | 90 | 261 | 0.0 | 3.0 | 0.00 | 0.00 | 0.00 | 70 | 1009.3 |
| 20260906123433 | 90 | 273 | 1.0 | 4.0 | 0.00 | 0.00 | 0.00 | 69 | 1009.1 |
| 20260906122433 | 90 | 248 | 2.0 | 5.0 | 0.00 | 0.00 | 0.00 | 67 | 1008.9 |
| 20260906121432 | 90 | 242 | 0.0 | 6.0 | 0.00 | 0.00 | 0.00 | 66 | 1009.0 |
| 20260906120432 | 90 | 241 | 4.0 | 11.0 | 0.00 | 0.00 | 0.00 | 66 | 1008.5 |
| 20260906115433 | 90 | 235 | 4.0 | 8.0 | 0.00 | 0.00 | 0.00 | 66 | 1008.3 |
| 20260906114432 | 90 | 243 | 4.0 | 9.0 | 0.00 | 0.00 | 0.00 | 66 | 1008.1 |
| 20260906113433 | 90 | 335 | 2.0 | 10.0 | 0.00 | 0.00 | 0.00 | 66 | 1008.2 |
| 20260906112433 | 90 | 251 | 5.0 | 8.0 | 0.00 | 0.00 | 0.00 | 66 | 1007.4 |
| 20260906111912 | 90 | 249 | 5.0 | 6.0 | 0.00 | 0.00 | 0.00 | 66 | 1007.2 |
| 20260906110432 | 90 | 228 | 2.0 | 5.0 | 0.00 | 0.00 | 0.00 | 66 | 1007.1 |
| 20260906105433 | 90 | 248 | 4.0 | 7.0 | 0.00 | 0.00 | 0.00 | 66 | 1006.9 |
| 20260906104434 | 90 | 272 | 2.0 | 5.0 | 0.00 | 0.00 | 0.00 | 66 | 1006.6 |
| 20260906103432 | 90 | 285 | 2.0 | 7.0 | 0.00 | 0.00 | 0.00 | 66 | 1006.6 |
| 20260906102431 | 90 | 263 | 5.0 | 6.0 | 0.00 | 0.00 | 0.00 | 66 | 1006.3 |
| 20260906101432 | 90 | 254 | 3.0 | 6.0 | 0.00 | 0.00 | 0.00 | 66 | 1005.8 |
| 20260906100432 | 90 | 223 | 5.0 | 5.0 | 0.00 | 0.00 | 0.00 | 66 | 1005.6 |
| 20260906095604 | 90 | 256 | 1.0 | 6.0 | 0.00 | 0.00 | 0.00 | 66 | 1005.6 |
| 20260906094602 | 91 | 245 | 5.0 | 7.0 | 0.00 | 0.00 | 0.00 | 65 | 1005.4 |
| 20260906093557 | 91 | 235 | 4.0 | 9.0 | 0.00 | 0.00 | 0.00 | 64 | 1005.0 |
| 20260906092554 | 91 | 288 | 5.0 | 9.0 | 0.00 | 0.00 | 0.00 | 63 | 1005.2 |
| 20260906091549 | 91 | 307 | 2.0 | 10.0 | 0.00 | 0.00 | 0.00 | 62 | 1005.2 |
| 20260906090544 | 91 | 240 | 2.0 | 11.0 | 0.00 | 0.00 | 0.00 | 62 | 1005.3 |
| 20260906085538 | 91 | 240 | 6.0 | 12.0 | 0.00 | 0.00 | 0.00 | 64 | 1005.4 |
| 20260906085045 | 91 | 246 | 4.0 | 7.0 | 0.00 | 0.00 | 0.00 | 62 | 1005.0 |
| 20260906083530 | 91 | 263 | 4.0 | 6.0 | 0.00 | 0.00 | 0.00 | 61 | 1004.9 |
| 20260906083045 | 91 | 267 | 5.0 | 7.0 | 0.00 | 0.00 | 0.00 | 61 | 1005.0 |
| 20260906082043 | 91 | 281 | 3.0 | 6.0 | 0.00 | 0.00 | 0.00 | 61 | 1005.2 |
| 20260906080524 | 91 | 301 | 1.0 | 9.0 | 0.00 | 0.00 | 0.00 | 61 | 1005.2 |
| 20260906075522 | 91 | 268 | 2.0 | 7.0 | 0.00 | 0.00 | 0.00 | 61 | 1005.4 |
| 20260906074515 | 91 | 325 | 4.0 | 8.0 | 0.00 | 0.00 | 0.00 | 61 | 1005.5 |
| 20260906073509 | 91 | 328 | 6.0 | 6.0 | 0.00 | 0.00 | 0.00 | 62 | 1005.4 |
| 20260906072513 | 90 | 256 | 3.0 | 5.0 | 0.00 | 0.00 | 0.00 | 62 | 1005.4 |
| 20260906071506 | 91 | 260 | 3.0 | 7.0 | 0.00 | 0.00 | 0.00 | 62 | 1005.6 |
| 20260906070504 | 91 | 247 | 3.0 | 11.0 | 0.00 | 0.00 | 0.00 | 62 | 1005.8 |
| 20260906070010 | 91 | 260 | 3.0 | 6.0 | 0.00 | 0.00 | 0.00 | 61 | 1005.8 |
| 20260906064454 | 90 | 107 | 3.0 | 7.0 | 0.00 | 0.00 | 0.00 | 60 | 1005.9 |
| 20260906063452 | 90 | 293 | 2.0 | 8.0 | 0.00 | 0.00 | 0.00 | 62 | 1006.2 |
| 20260906062451 | 90 | 280 | 4.0 | 10.0 | 0.00 | 0.00 | 0.00 | 62 | 1006.3 |
| 20260906061451 | 90 | 271 | 4.0 | 7.0 | 0.00 | 0.00 | 0.00 | 64 | 1007.1 |
| 20260906061443 | 90 | 257 | 3.0 | 7.0 | 0.00 | 0.00 | 0.00 | 63 | 1006.8 |
| 20260906055940 | 90 | 323 | 3.0 | 7.0 | 0.00 | 0.00 | 0.00 | 64 | 1007.2 |
| 20260906054436 | 90 | 211 | 2.0 | 7.0 | 0.00 | 0.00 | 0.00 | 64 | 1007.6 |
| 20260906053431 | 90 | 275 | 2.0 | 6.0 | 0.00 | 0.00 | 0.00 | 64 | 1007.8 |
| 20260906052431 | 90 | 275 | 3.0 | 8.0 | 0.00 | 0.00 | 0.00 | 64 | 1008.1 |
| 20260906051431 | 89 | 273 | 4.0 | 8.0 | 0.00 | 0.00 | 0.00 | 65 | 1008.4 |
| 20260906050431 | 89 | 322 | 2.0 | 7.0 | 0.00 | 0.00 | 0.00 | 66 | 1008.5 |
| 20260906045431 | 89 | 274 | 2.0 | 9.0 | 0.00 | 0.00 | 0.00 | 65 | 1008.8 |
| 20260906044430 | 89 | 319 | 2.0 | 5.0 | 0.00 | 0.00 | 0.00 | 65 | 1008.9 |
| 20260906043431 | 89 | 251 | 7.0 | 8.0 | 0.00 | 0.00 | 0.00 | 65 | 1009.0 |
| 20260906042431 | 89 | 252 | 4.0 | 7.0 | 0.00 | 0.00 | 0.00 | 66 | 1009.1 |
| 20260906041431 | 89 | 278 | 2.0 | 7.0 | 0.00 | 0.00 | 0.00 | 66 | 1009.3 |
| 20260906040431 | 89 | 260 | 2.0 | 8.0 | 0.00 | 0.00 | 0.00 | 66 | 1009.5 |
| 20260906035914 | 89 | 289 | 2.0 | 6.0 | 0.00 | 0.00 | 0.00 | 67 | 1009.5 |
| 20260906034431 | 89 | 261 | 3.0 | 8.0 | 0.00 | 0.00 | 0.00 | 67 | 1009.6 |
| 20260906033432 | 88 | 336 | 3.0 | 6.0 | 0.00 | 0.00 | 0.00 | 68 | 1009.9 |
| 20260906032431 | 88 | 313 | 4.0 | 7.0 | 0.00 | 0.00 | 0.00 | 68 | 1010.0 |
| 20260906031431 | 87 | 297 | 2.0 | 7.0 | 0.00 | 0.00 | 0.00 | 69 | 1010.0 |
| 20260906030432 | 87 | 249 | 2.0 | 9.0 | 0.00 | 0.00 | 0.00 | 68 | 1010.0 |
| 20260906025431 | 87 | 283 | 2.0 | 9.0 | 0.00 | 0.00 | 0.00 | 69 | 1010.2 |
| 20260906024431 | 87 | 259 | 2.0 | 6.0 | 0.00 | 0.00 | 0.00 | 70 | 1010.0 |
| 20260906023431 | 86 | 252 | 4.0 | 8.0 | 0.00 | 0.00 | 0.00 | 70 | 1010.2 |
| 20260906022432 | 86 | 251 | 3.0 | 9.0 | 0.00 | 0.00 | 0.00 | 70 | 1010.2 |
| 20260906021431 | 86 | 144 | 0.0 | 11.0 | 0.00 | 0.00 | 0.00 | 70 | 1010.3 |
| 20260906020431 | 86 | 247 | 4.0 | 7.0 | 0.00 | 0.00 | 0.00 | 71 | 1010.3 |
| 20260906015430 | 86 | 300 | 1.0 | 10.0 | 0.00 | 0.00 | 0.00 | 71 | 1010.3 |
| 20260906014431 | 86 | 218 | 4.0 | 7.0 | 0.00 | 0.00 | 0.00 | 72 | 1010.0 |
| 20260906013431 | 86 | 287 | 3.0 | 6.0 | 0.00 | 0.00 | 0.00 | 73 | 1010.0 |
| 20260906012431 | 86 | 277 | 4.0 | 9.0 | 0.00 | 0.00 | 0.00 | 73 | 1009.8 |
| 20260906011431 | 86 | 268 | 2.0 | 5.0 | 0.00 | 0.00 | 0.00 | 75 | 1009.7 |
| 20260906010433 | 86 | 248 | 1.0 | 4.0 | 0.00 | 0.00 | 0.00 | 77 | 1009.6 |
| 20260906005432 | 86 | 247 | 2.0 | 3.0 | 0.00 | 0.00 | 0.00 | 78 | 1009.5 |
| 20260906004434 | 86 | 178 | 0.0 | 3.0 | 0.00 | 0.00 | 0.00 | 78 | 1009.4 |
| 20260906003433 | 86 | 180 | 2.0 | 2.0 | 0.00 | 0.00 | 0.00 | 78 | 1009.2 |
| 20260906002432 | 86 | 129 | 0.0 | 2.0 | 0.00 | 0.00 | 0.00 | 78 | 1009.1 |
| 20260906001429 | 86 | 333 | 0.0 | 2.0 | 0.00 | 0.00 | 0.00 | 78 | 1009.0 |
| 20260906000433 | 86 | 323 | 1.0 | 1.0 | 0.00 | 0.00 | 0.00 | 78 | 1008.8 |
| 20260905235430 | 86 | 99 | 0.0 | 2.0 | 0.00 | 0.00 | 0.00 | 77 | 1008.8 |
| 20260905234430 | 86 | 210 | 0.0 | 2.0 | 0.00 | 0.00 | 0.00 | 77 | 1008.6 |
| 20260905233431 | 86 | 119 | 0.0 | 1.0 | 0.00 | 0.00 | 0.00 | 77 | 1008.7 |
| 20260905232908 | 86 | 242 | 0.0 | 0.0 | 0.00 | 0.00 | 0.00 | 77 | 1008.6 |
| 20260905232343 | 86 | 147 | 0.0 | 1.0 | 0.00 | 0.00 | 0.00 | 77 | 1008.4 |
| 20260905230427 | 86 | 40 | 0.0 | 1.0 | 0.00 | 0.00 | 0.00 | 77 | 1008.3 |
| 20260905225427 | 86 | 315 | 0.0 | 0.0 | 0.00 | 0.00 | 0.00 | 77 | 1008.3 |
| 20260905224914 | 86 | 89 | 0.0 | 1.0 | 0.00 | 0.00 | 0.00 | 77 | 1008.2 |
| 20260905223426 | 86 | 110 | 0.0 | 1.0 | 0.00 | 0.00 | 0.00 | 77 | 1008.2 |
| 20260905222425 | 86 | 135 | 0.0 | 0.0 | 0.00 | 0.00 | 0.00 | 77 | 1008.1 |
| 20260905221425 | 87 | 89 | 0.0 | 2.0 | 0.00 | 0.00 | 0.00 | 77 | 1008.0 |
| 20260905220425 | 87 | 89 | 0.0 | 2.0 | 0.00 | 0.00 | 0.00 | 77 | 1007.8 |
| 20260905215425 | 87 | 70 | 1.0 | 2.0 | 0.00 | 0.00 | 0.00 | 77 | 1007.8 |
| 20260905214423 | 87 | 124 | 0.0 | 2.0 | 0.00 | 0.00 | 0.00 | 77 | 1007.8 |
| 20260905213423 | 87 | 89 | 0.0 | 2.0 | 0.00 | 0.00 | 0.00 | 77 | 1007.5 |
| 20260905212905 | 87 | 195 | 0.0 | 1.0 | 0.00 | 0.00 | 0.00 | 77 | 1007.4 |
| 20260905211554 | 87 | 44 | 0.0 | 2.0 | 0.00 | 0.00 | 0.00 | 77 | 1007.5 |
| 20260905210549 | 87 | 226 | 1.0 | 2.0 | 0.00 | 0.00 | 0.00 | 77 | 1007.6 |
| 20260905205408 | 87 | 106 | 0.0 | 1.0 | 0.00 | 0.00 | 0.00 | 77 | 1007.5 |
| 20260905204407 | 87 | 326 | 0.0 | 0.0 | 0.00 | 0.00 | 0.00 | 77 | 1007.6 |
| 20260905203539 | 87 | 322 | 0.0 | 2.0 | 0.00 | 0.00 | 0.00 | 77 | 1007.7 |
| 20260905202534 | 87 | 104 | 1.0 | 1.0 | 0.00 | 0.00 | 0.00 | 77 | 1007.6 |
| 20260905201531 | 87 | 142 | 0.0 | 2.0 | 0.00 | 0.00 | 0.00 | 77 | 1007.7 |
| 20260905200529 | 87 | 135 | 0.0 | 2.0 | 0.00 | 0.00 | 0.00 | 77 | 1007.7 |
| 20260905195526 | 87 | 135 | 0.0 | 2.0 | 0.00 | 0.00 | 0.00 | 77 | 1007.7 |
| 20260905194521 | 87 | 44 | 0.0 | 2.0 | 0.00 | 0.00 | 0.00 | 77 | 1007.7 |
| 20260905193521 | 87 | 129 | 0.0 | 0.0 | 0.00 | 0.00 | 0.00 | 76 | 1007.5 |
| 20260905192515 | 87 | 315 | 0.0 | 1.0 | 0.00 | 0.00 | 0.00 | 76 | 1007.8 |
| 20260905191514 | 87 | 135 | 0.0 | 2.0 | 0.00 | 0.00 | 0.00 | 76 | 1007.9 |
| 20260905190511 | 87 | 62 | 0.0 | 0.0 | 0.00 | 0.00 | 0.00 | 76 | 1007.9 |
| 20260905185509 | 88 | 89 | 0.0 | 0.0 | 0.00 | 0.00 | 0.00 | 76 | 1008.1 |
| 20260905184504 | 88 | 117 | 0.0 | 1.0 | 0.00 | 0.00 | 0.00 | 75 | 1008.1 |
| 20260905183501 | 88 | 242 | 0.0 | 0.0 | 0.00 | 0.00 | 0.00 | 75 | 1008.1 |
| 20260905182502 | 88 | 246 | 0.0 | 1.0 | 0.00 | 0.00 | 0.00 | 75 | 1008.1 |
| 20260905181500 | 88 | 117 | 0.0 | 1.0 | 0.00 | 0.00 | 0.00 | 75 | 1008.2 |
| 20260905180455 | 88 | 62 | 0.0 | 0.0 | 0.00 | 0.00 | 0.00 | 75 | 1008.3 |
| 20260905175449 | 88 | 224 | 0.0 | 1.0 | 0.00 | 0.00 | 0.00 | 74 | 1008.5 |
| 20260905174444 | 88 | 242 | 0.0 | 1.0 | 0.00 | 0.00 | 0.00 | 74 | 1008.6 |
| 20260905173953 | 88 | 89 | 0.0 | 1.0 | 0.00 | 0.00 | 0.00 | 74 | 1008.7 |
| 20260905172439 | 88 | 129 | 0.0 | 1.0 | 0.00 | 0.00 | 0.00 | 74 | 1008.9 |
| 20260905171434 | 88 | 333 | 0.0 | 1.0 | 0.00 | 0.00 | 0.00 | 74 | 1009.0 |
| 20260905170500 | 88 | 89 | 0.0 | 2.0 | 0.00 | 0.00 | 0.00 | 74 | 1009.0 |
| 20260905165427 | 88 | 135 | 0.0 | 1.0 | 0.00 | 0.00 | 0.00 | 73 | 1009.3 |
| 20260905164426 | 88 | 294 | 0.0 | 2.0 | 0.00 | 0.00 | 0.00 | 73 | 1009.3 |
| 20260905163417 | 88 | 315 | 0.0 | 2.0 | 0.00 | 0.00 | 0.00 | 73 | 1009.5 |
| 20260905162414 | 88 | 135 | 0.0 | 1.0 | 0.00 | 0.00 | 0.00 | 73 | 1009.6 |